Location: ?????
(31.8092°N, 35.2590°E)
Time: 18:37:29
(UTC+00:00)

Cosmos 1461 - Pass Details

Date: 20 June 2021
Orbit: 512 x 650 km, 65.0° (Epoch: 22 July)

Event Time Altitude Azimuth Distance (km) Brightness Sun altitude
Rises 18:31:57 0° 340° (NNW) 2,763 7.6 -18.7°
Reaches altitude 10° 18:34:19 10° 347° (NNW) 1,839 6.3 -19.0°
Maximum altitude 18:38:13 41° 59° (ENE) 791 3.5 -19.6°
Enters shadow 18:38:44 39° 80° (E) 818 3.4 -19.7°
